Wind_Speed
34 34 35 36 37 33 29 28 29 30 30 31 33 35 36 38 41 44 46 48 50 52 54 57 60 62 63 63 62 60 58 57 54 51 48 47 45 43 42 42 41 41 41 40 37 36 32 28 26 25 26 28 30 30 32 34 35 34 32 31 31 30 29
33 33 34 35 36 33 28 28 28 29 30 31 32 34 36 38 41 44 46 48 50 52 54 56 59 62 63 64 64 62 60 57 55 52 49 48 46 43 42 42 42 41 40 39 37 35 31 27 24 26 27 29 32 35 37 39 40 39 36 36 37 35 34
33 32 32 34 35 32 27 27 27 28 29 30 32 33 35 38 41 44 46 48 50 52 54 56 59 61 63 65 65 64 62 59 56 54 51 49 46 44 41 41 42 41 39 38 36 33 30 25 22 24 26 27 32 37 38 39 41 41 40 41 41 41 41
33 31 31 33 34 30 26 26 26 27 28 29 31 33 35 39 42 44 46 48 50 52 54 56 59 61 63 65 66 66 65 62 59 56 54 51 48 45 41 39 40 40 39 38 35 32 28 23 20 22 25 29 34 36 37 38 39 40 41 42 43 44 46
33 29 30 32 33 29 25 25 25 25 27 29 30 32 35 39 41 43 45 48 50 51 53 56 58 61 63 66 67 68 67 65 62 58 55 52 49 46 42 38 38 39 39 37 35 31 27 22 19 20 25 31 35 36 36 36 35 36 38 40 42 43 43
31 28 29 31 31 27 23 24 25 24 25 28 30 32 35 38 41 43 45 47 50 51 53 55 58 61 63 65 67 68 68 67 64 60 56 53 50 46 42 38 36 37 38 36 33 30 26 20 19 19 23 30 33 33 33 32 31 32 32 35 39 39 37
27 26 28 30 30 25 22 23 23 23 24 27 29 31 35 38 40 43 45 47 49 51 52 55 57 60 63 65 66 68 68 68 65 62 58 54 50 47 44 39 34 33 35 35 32 29 25 19 18 19 21 26 29 29 29 29 29 28 27 30 34 33 31
25 25 27 30 29 23 20 22 22 22 23 25 28 31 34 37 39 42 45 46 49 51 52 54 57 60 62 64 65 67 68 68 67 64 60 56 52 48 45 40 35 31 31 33 31 28 24 18 16 16 16 20 23 25 26 26 26 24 23 24 28 30 30
23 25 27 30 28 21 19 21 22 22 22 24 27 30 34 36 38 41 44 46 48 50 51 53 56 59 61 63 65 66 68 69 68 66 62 58 54 49 46 42 37 31 28 29 30 27 23 17 13 13 13 14 16 19 22 24 23 22 20 19 20 23 26
24 26 29 30 26 19 18 20 21 21 21 24 26 29 33 35 38 40 43 45 47 49 51 52 55 58 60 62 64 66 67 69 69 67 64 60 56 52 47 43 39 33 27 25 26 26 22 17 10 9 10 10 11 13 17 20 20 19 18 17 15 14 18
26 28 30 30 24 17 17 19 20 20 21 23 25 28 32 34 37 39 42 44 46 47 49 51 54 57 59 61 63 65 67 68 69 68 66 62 58 54 49 44 40 35 29 23 21 22 21 17 10 5 6 8 9 10 13 16 17 16 15 15 13 10 12
28 30 31 29 22 16 15 18 19 20 21 22 25 27 31 34 36 39 41 43 45 46 48 50 53 56 58 60 62 64 66 68 69 68 67 63 59 56 51 47 42 37 32 26 20 18 18 16 11 6 4 6 7 8 10 13 15 14 14 14 13 11 11
31 31 30 27 20 15 15 17 18 20 20 22 24 26 30 33 35 37 40 42 44 45 47 49 52 55 58 59 61 63 65 67 68 68 67 65 61 57 53 49 45 40 35 29 22 16 14 14 12 7 2 5 7 8 10 12 13 13 14 14 13 12 11
32 31 28 24 18 13 14 16 18 19 20 21 23 25 29 32 34 36 39 42 44 44 45 48 51 54 57 59 60 62 64 66 68 68 67 66 63 59 55 51 47 43 38 33 27 20 14 12 11 9 4 2 7 9 11 13 14 14 15 15 14 13 12
31 29 26 21 16 12 13 15 17 19 20 22 23 25 28 31 33 36 38 41 43 42 44 47 50 52 56 58 60 61 63 65 67 68 68 67 64 61 57 54 50 46 41 36 31 25 18 12 10 9 8 4 5 9 12 15 16 16 16 16 16 16 16
30 27 23 19 14 12 13 14 17 19 20 22 23 24 27 30 33 35 38 41 42 41 43 46 48 51 54 58 60 61 62 64 66 67 68 67 66 63 59 56 52 48 44 40 35 30 24 17 11 10 11 9 7 9 11 14 17 18 19 18 18 17 18
29 26 22 17 13 12 13 14 16 19 20 22 24 25 27 29 32 34 37 40 41 40 42 44 47 49 52 56 59 60 61 63 64 66 67 68 67 65 62 58 54 51 47 43 39 34 29 23 17 11 11 12 12 12 13 14 17 19 21 22 21 20 20
29 25 21 16 14 13 13 15 16 18 20 22 24 25 26 28 30 33 36 38 40 40 41 44 45 48 50 54 58 60 61 62 63 65 67 68 68 67 64 61 57 53 50 47 42 38 33 28 22 17 13 12 14 16 17 18 18 20 22 23 24 24 24
29 25 21 17 15 14 14 15 17 19 20 22 24 25 26 27 28 31 34 37 38 39 41 43 45 46 49 53 56 59 60 62 63 64 66 67 69 69 67 64 60 56 53 50 46 41 37 31 27 22 18 14 14 16 18 21 22 22 23 23 25 27 28
30 26 22 18 16 15 16 16 17 19 21 22 24 25 25 26 27 29 32 35 38 39 40 42 44 46 48 51 55 58 61 61 62 63 65 66 68 70 70 68 64 60 56 53 50 45 41 35 30 26 22 18 16 15 17 21 25 27 27 26 26 28 31
30 27 24 20 18 17 17 18 18 20 21 22 24 25 25 26 26 27 31 34 37 39 40 42 44 46 48 51 53 57 60 61 61 61 63 65 67 70 72 71 68 64 60 56 53 49 45 40 34 30 25 22 19 18 18 19 23 28 31 31 31 30 31
31 29 26 23 21 19 19 19 20 20 21 23 24 25 26 26 26 27 30 33 36 38 40 42 44 46 47 50 53 57 60 61 60 60 62 65 67 69 72 73 72 68 64 60 57 53 49 44 39 34 29 25 22 20 20 20 22 25 29 32 34 34 34
31 30 29 26 24 22 21 21 21 22 22 22 24 25 26 26 26 27 29 32 35 37 40 41 43 45 48 50 53 57 60 60 59 60 61 64 67 69 71 73 74 73 69 65 61 57 53 48 43 38 34 29 26 23 22 22 23 25 28 30 33 36 37
31 31 31 30 28 25 23 22 23 23 23 23 24 25 27 28 27 27 28 31 34 36 38 41 43 45 47 50 54 58 59 59 59 59 60 63 66 68 71 74 76 76 74 69 65 61 57 52 47 42 38 34 30 27 25 24 24 26 28 30 31 33 36
32 32 32 32 31 29 26 24 24 25 25 24 24 25 27 28 28 28 28 30 32 35 37 40 42 44 46 49 53 57 58 58 59 60 60 62 65 68 71 74 77 78 77 74 69 65 61 56 51 46 42 38 34 31 29 27 26 27 28 30 32 32 34
33 33 33 33 33 32 30 27 25 26 26 26 26 26 27 29 29 29 29 30 31 34 36 39 41 43 45 48 52 55 57 58 59 60 61 62 64 68 71 74 77 78 79 77 72 68 64 59 54 49 45 42 38 35 32 30 29 28 28 29 31 33 34
32 33 34 34 34 34 33 31 28 27 27 28 27 27 27 29 29 29 30 30 31 33 36 38 40 43 44 47 50 53 56 58 60 61 61 61 63 67 70 73 76 78 79 78 75 71 66 62 57 52 48 45 42 39 35 32 30 28 27 28 30 32 34
32 32 33 34 35 35 36 35 33 30 28 28 29 28 28 28 29 29 30 31 32 33 35 37 40 42 44 46 49 53 56 59 60 61 62 62 63 66 69 72 75 77 79 80 78 74 69 65 60 54 50 46 44 42 39 34 31 28 27 27 28 30 32
32 31 32 33 35 36 37 38 37 35 31 29 29 29 28 28 29 29 30 31 32 33 34 37 39 42 43 45 48 52 56 59 61 62 62 62 63 66 69 72 75 78 80 81 81 78 73 68 63 57 52 48 45 42 39 36 32 28 25 25 26 27 29
31 30 31 32 34 35 36 38 39 38 35 32 30 30 29 28 28 28 29 30 31 32 34 36 39 41 43 44 47 51 55 59 61 63 63 63 63 65 69 73 76 79 80 82 83 80 76 71 66 60 54 50 46 42 39 35 32 28 24 23 23 24 26
30 30 30 31 33 35 36 37 39 40 39 35 32 31 30 28 27 27 28 29 30 31 33 36 38 40 42 44 46 50 54 58 61 63 64 64 64 66 69 73 76 79 81 83 84 83 79 74 69 63 57 52 47 43 39 34 31 27 24 22 21 21 23
29 29 29 30 32 33 34 36 37 39 40 38 35 33 32 30 28 27 28 29 30 31 33 35 38 40 42 43 46 49 54 58 61 63 65 65 64 66 70 73 77 79 82 84 86 86 82 76 71 65 59 53 48 43 39 34 30 26 23 21 20 19 20
29 28 29 30 32 33 34 34 36 38 39 39 37 34 33 32 29 27 27 29 30 30 32 35 37 39 41 43 45 49 53 58 60 62 65 65 64 65 69 73 77 79 82 85 88 88 84 79 73 68 61 55 49 44 39 34 30 26 22 19 18 17 17
28 29 31 31 31 32 33 34 35 36 38 39 38 35 33 32 31 28 27 28 29 30 32 35 37 39 41 43 45 48 53 58 60 62 65 66 65 65 69 73 77 79 83 86 88 89 86 81 75 70 63 57 50 44 39 34 29 25 21 18 17 16 15
29 31 32 32 32 32 33 34 35 35 36 38 39 37 35 33 31 29 27 28 30 31 33 35 37 39 40 43 45 48 53 58 59 61 65 67 65 65 69 73 76 80 83 86 88 89 88 83 78 72 66 59 52 46 40 35 30 25 21 17 15 13 13
31 33 33 33 33 33 33 34 35 36 36 37 38 38 37 35 32 30 28 28 30 32 33 35 36 38 40 42 45 48 54 58 59 60 64 67 66 65 68 72 76 79 82 85 87 90 90 86 80 74 67 60 54 47 41 36 31 26 21 17 13 12 11
33 34 36 37 36 35 34 35 35 36 36 36 37 38 38 37 34 32 30 30 31 32 34 35 36 38 40 42 45 49 54 57 58 59 63 67 66 65 67 72 75 78 81 84 87 91 92 89 83 76 69 61 55 49 43 37 31 26 21 17 13 10 9
Wind_Direction
335 337 338 339 341 342 341 341 343 345 348 351 355 356 356 357 359 359 360 360 1 2 4 6 7 8 8 8 8 9 8 6 6 7 6 6 7 9 12 15 18 21 23 23 24 26 28 34 44 54 64 71 75 76 75 76 77 78 81 84 84 85 87
333 336 337 338 340 341 340 341 343 345 348 351 355 355 355 357 358 359 360 360 1 2 3 6 8 8 9 10 10 10 10 9 8 8 8 8 8 9 12 15 18 21 24 24 26 28 30 36 51 66 77 82 83 82 82 82 82 82 83 84 85 85 87
330 334 336 337 339 340 339 340 342 344 348 352 355 355 354 356 358 359 0 0 0 1 3 5 8 9 9 10 11 11 11 11 10 10 10 10 10 11 12 14 17 20 24 26 28 31 35 42 60 78 86 87 87 88 88 88 87 86 86 87 88 90 91
327 331 335 336 337 339 338 339 341 344 348 353 355 355 354 356 358 359 0 1 0 1 3 5 7 9 10 10 11 11 11 12 12 11 11 11 11 12 13 14 16 19 23 27 30 34 41 52 71 86 91 90 90 91 91 91 91 91 92 93 94 95 95
324 329 333 334 336 337 337 338 340 344 349 354 356 355 355 356 358 359 0 1 1 2 4 5 8 9 10 11 11 12 12 12 12 13 12 12 12 12 13 14 15 18 22 26 32 38 46 62 80 91 94 94 94 94 92 91 92 93 97 100 99 96 94
321 327 332 333 335 336 335 336 339 343 350 355 357 356 356 358 359 360 0 1 1 2 4 5 7 9 10 11 11 12 12 12 12 13 14 13 13 12 13 14 15 16 20 24 32 41 50 69 89 96 98 99 99 98 96 94 94 95 99 104 102 97 95
321 327 331 332 334 335 333 334 337 342 350 356 357 356 356 358 359 0 0 1 2 3 4 4 6 8 9 11 11 12 12 12 12 12 14 14 14 13 13 14 15 15 17 21 30 42 54 75 99 105 104 106 107 106 104 101 99 99 103 107 107 105 103
323 328 331 331 332 333 332 333 336 341 350 356 357 356 357 358 359 0 0 1 1 3 4 4 5 7 8 10 11 12 12 12 12 12 13 14 14 14 14 14 15 14 15 18 25 39 53 74 108 119 115 115 117 115 113 109 104 103 106 109 112 116 114
326 330 331 330 331 332 330 331 334 340 348 355 357 357 357 358 359 360 0 360 1 2 4 4 4 6 8 9 10 11 12 12 12 12 11 12 14 15 15 14 15 14 14 16 19 31 46 66 106 132 130 126 127 124 120 117 114 114 114 114 119 124 123
330 331 330 330 331 330 328 329 332 338 346 353 357 358 358 358 358 359 359 359 360 1 3 4 4 5 7 8 10 11 12 12 12 12 11 11 12 14 15 15 14 14 14 14 15 22 36 55 87 134 144 140 140 138 132 126 124 125 123 122 125 129 131
330 329 329 330 330 328 327 327 331 337 343 350 355 358 358 357 358 358 358 358 359 1 2 4 4 5 6 8 9 11 12 12 12 11 11 11 11 12 14 14 14 13 13 13 12 13 23 41 66 113 156 160 156 151 146 136 130 131 131 129 132 137 144
328 326 328 329 328 326 324 325 329 335 340 347 353 357 357 357 357 357 356 356 358 360 2 3 4 5 6 8 9 10 11 12 11 11 11 11 11 11 12 13 14 13 12 11 10 7 10 23 44 76 151 181 178 168 158 146 139 143 143 138 139 143 152
326 325 327 327 325 323 321 322 328 333 337 343 350 355 356 356 356 355 354 354 356 359 1 3 4 5 6 7 9 10 11 12 12 11 10 11 11 11 10 11 12 12 12 11 9 4 359 3 16 37 104 189 198 190 177 164 156 160 158 151 149 152 160
328 326 326 325 322 320 318 320 327 331 334 340 347 352 354 354 354 353 352 352 355 358 0 2 4 5 6 7 8 10 11 12 12 11 10 10 11 11 10 10 10 10 10 10 9 5 355 346 350 360 10 195 202 203 195 186 177 174 174 168 166 171 175
331 328 326 323 319 317 316 319 325 329 332 336 342 349 351 352 353 352 351 351 354 358 0 1 3 5 6 7 8 9 11 12 12 12 11 11 11 11 11 10 9 8 8 7 7 6 360 345 330 325 326 303 223 213 208 203 195 189 189 188 185 186 187
335 330 327 323 317 316 316 317 324 329 330 333 338 344 348 350 351 350 350 352 354 358 0 0 2 4 5 6 7 8 10 12 13 12 12 12 11 11 11 10 9 8 7 5 4 3 1 354 334 307 301 296 274 246 229 219 211 205 203 204 202 199 196
338 334 330 324 317 315 315 316 322 327 330 331 334 339 344 346 348 349 350 352 355 358 0 0 1 2 4 5 6 7 9 11 12 13 13 13 13 11 10 10 9 8 7 5 3 1 359 356 347 325 296 282 276 269 257 241 227 218 216 215 214 212 209
342 338 333 325 318 316 315 317 320 326 330 331 332 336 340 343 346 349 351 353 355 358 0 1 0 1 2 4 5 7 7 9 11 13 13 14 13 12 11 10 9 8 6 5 3 0 357 353 348 339 317 289 274 268 261 254 245 235 228 225 223 221 219
346 342 337 328 320 318 316 317 320 325 330 332 332 334 337 340 345 348 351 354 355 357 360 0 359 359 1 2 4 5 6 8 10 12 13 14 14 13 12 10 9 8 6 5 3 1 357 352 347 340 331 311 288 270 259 253 251 248 243 238 233 229 227
349 345 341 333 325 319 317 318 320 325 330 332 332 332 334 338 343 347 350 353 355 356 358 359 358 358 359 1 2 4 4 5 7 10 12 13 14 14 13 11 9 7 6 4 3 1 358 354 348 341 333 322 305 286 268 254 249 249 249 248 246 239 234
351 349 344 338 330 322 319 319 320 324 328 331 331 331 332 335 340 345 349 352 354 355 357 358 358 357 358 359 360 1 2 3 5 8 10 12 13 14 13 12 9 7 6 4 2 0 358 355 350 344 335 325 313 298 283 267 254 249 248 248 249 247 242
353 352 348 342 336 328 321 319 320 322 326 329 330 330 330 332 337 343 348 351 353 355 356 357 356 356 357 358 358 359 360 1 2 5 8 10 12 13 13 12 10 8 6 4 2 360 357 355 351 346 339 330 319 306 292 280 267 258 252 247 245 245 245
353 355 353 348 341 333 325 320 319 321 323 327 329 329 329 330 334 339 345 349 352 353 354 355 355 355 356 357 358 358 359 0 1 3 7 10 11 12 12 12 11 9 6 4 2 360 357 354 351 346 341 334 326 315 301 287 276 268 261 255 248 242 240
353 354 355 353 348 340 331 323 318 319 321 324 326 327 328 330 332 335 340 345 349 351 352 353 353 353 355 357 358 358 359 1 1 1 5 9 10 11 11 11 11 9 7 5 2 360 357 354 351 346 342 336 330 321 310 297 285 275 268 262 257 248 240
352 353 353 354 353 348 340 330 321 318 318 320 323 324 326 329 332 335 337 341 346 349 350 351 351 351 354 358 358 359 1 1 0 0 3 7 9 10 10 10 10 9 7 5 3 360 357 354 351 347 342 337 331 324 315 306 294 283 274 267 262 257 248
350 352 352 353 354 353 349 341 329 321 317 318 319 321 323 326 331 335 337 338 341 346 349 350 349 349 353 357 358 359 0 1 0 360 1 5 7 9 9 10 9 8 7 5 3 360 357 355 351 347 342 337 332 326 319 311 302 291 281 272 265 260 255
346 349 351 352 352 354 354 350 342 330 321 318 317 318 320 322 328 334 337 336 339 343 346 348 348 348 351 356 357 357 358 359 359 359 359 2 5 7 8 8 8 7 6 5 3 0 358 355 351 347 342 337 332 327 322 315 308 299 288 278 269 262 257
340 345 348 349 350 351 353 353 350 342 330 322 319 317 318 319 323 330 334 336 338 341 344 347 347 346 349 354 355 355 356 357 358 358 358 359 3 5 7 7 7 6 5 4 2 0 358 355 352 348 343 337 332 328 324 320 313 305 294 283 272 264 258
335 339 344 347 347 348 350 352 353 350 341 331 324 320 319 319 320 325 330 334 336 339 342 345 345 344 347 352 353 354 354 354 356 357 356 357 0 4 6 6 6 5 4 4 2 360 358 355 352 349 343 339 334 330 326 322 317 310 300 288 276 267 259
332 334 340 344 345 346 347 350 352 352 348 339 330 325 323 321 321 323 326 330 334 337 340 342 343 343 345 349 351 352 352 353 354 355 356 356 358 2 5 5 5 4 4 3 2 360 358 355 353 350 345 340 337 333 330 325 321 315 305 293 282 271 262
330 332 335 341 343 343 345 347 349 351 350 345 337 331 327 326 325 324 325 327 331 335 337 340 341 341 342 346 349 350 351 352 352 354 355 355 356 1 4 5 5 4 4 3 2 360 358 356 353 350 347 343 340 337 334 330 325 319 311 299 287 275 265
329 331 333 337 341 342 343 345 348 350 351 349 344 337 332 330 329 327 326 325 328 332 334 337 338 339 341 344 347 349 349 350 351 353 354 354 356 360 4 5 5 4 4 3 2 0 358 356 354 351 348 345 343 341 338 334 330 324 316 304 291 279 267
328 330 333 335 337 340 342 344 345 348 350 350 347 342 337 334 332 330 328 326 326 329 331 334 336 338 339 342 345 347 348 348 349 351 353 354 355 359 3 5 5 5 4 4 3 1 359 356 355 352 350 348 347 345 342 339 334 328 320 308 296 285 271
328 328 331 333 335 337 340 342 344 345 348 349 348 345 341 337 335 334 331 328 326 327 329 332 335 336 338 341 344 346 347 347 348 350 353 354 355 358 3 5 5 5 5 5 4 2 360 357 356 354 351 350 349 348 346 343 339 333 325 314 301 289 275
326 324 326 329 332 334 336 340 342 343 345 348 348 347 344 340 338 336 334 329 327 326 328 331 334 335 337 340 343 345 346 346 347 350 353 354 355 358 3 5 5 5 5 5 4 3 1 359 357 356 353 351 351 351 349 347 343 338 331 321 308 292 277
323 321 323 325 328 331 333 336 339 340 342 344 347 348 346 343 340 338 335 331 328 327 329 331 334 335 337 339 343 345 345 346 347 350 353 355 356 358 3 5 5 5 5 5 5 4 3 1 359 357 355 353 353 353 352 350 347 343 337 328 315 298 280
327 320 319 320 322 325 327 330 333 336 339 341 343 345 346 345 342 339 336 333 330 328 330 332 334 335 337 340 343 344 345 346 347 350 353 356 356 358 2 5 5 5 5 5 5 5 4 2 0 359 356 354 354 355 354 352 350 347 342 334 323 307 287
Height
10647 10644 10641 10638 10635 10631 10628 10625 10623 10619 10616 10613 10609 10605 10602 10598 10594 10589 10583 10578 10572 10566 10559 10552 10544 10536 10528 10520 10512 10503 10495 10487 10479 10473 10466 10460 10454 10448 10443 10438 10432 10426 10421 10417 10413 10408 10405 10401 10397 10394 10390 10386 10384 10382 10379 10376 10374 10373 10372 10370 10369 10369 10370
10646 10643 10640 10637 10634 10630 10627 10625 10622 10619 10615 10612 10608 10605 10601 10597 10593 10588 10583 10577 10572 10566 10559 10552 10545 10537 10529 10521 10513 10505 10498 10490 10482 10475 10468 10462 10456 10449 10444 10439 10434 10429 10424 10420 10416 10411 10408 10405 10402 10398 10395 10391 10388 10386 10384 10382 10380 10379 10378 10375 10374 10375 10375
10644 10641 10638 10635 10632 10629 10626 10623 10621 10618 10615 10611 10607 10604 10600 10597 10593 10588 10583 10577 10572 10566 10559 10552 10545 10538 10530 10522 10514 10507 10499 10492 10484 10477 10470 10463 10457 10451 10446 10441 10436 10431 10427 10422 10418 10414 10412 10410 10407 10403 10399 10395 10392 10390 10389 10387 10385 10384 10383 10381 10380 10380 10381
10642 10640 10637 10634 10631 10628 10625 10622 10620 10617 10614 10610 10607 10603 10600 10596 10592 10588 10583 10578 10572 10566 10560 10553 10546 10538 10531 10523 10515 10507 10500 10492 10485 10477 10470 10464 10459 10453 10448 10443 10439 10435 10430 10425 10421 10418 10415 10414 10412 10408 10404 10400 10398 10396 10394 10392 10391 10390 10388 10387 10386 10385 10385
10640 10638 10635 10632 10630 10626 10624 10621 10619 10616 10613 10610 10606 10603 10599 10596 10592 10587 10583 10578 10572 10566 10560 10553 10546 10539 10532 10524 10516 10508 10501 10493 10486 10479 10472 10466 10460 10455 10450 10445 10441 10437 10433 10428 10425 10421 10419 10418 10416 10413 10408 10405 10403 10402 10400 10398 10397 10395 10394 10392 10390 10390 10389
10638 10636 10633 10631 10628 10625 10623 10620 10618 10616 10613 10609 10606 10602 10599 10596 10592 10587 10582 10578 10572 10567 10560 10554 10547 10540 10533 10526 10518 10510 10503 10496 10489 10482 10476 10469 10463 10458 10453 10448 10444 10440 10436 10432 10429 10425 10423 10421 10420 10418 10414 10410 10408 10406 10404 10403 10402 10401 10399 10397 10394 10394 10395
10636 10634 10631 10629 10626 10624 10621 10619 10617 10615 10612 10609 10605 10602 10599 10595 10592 10587 10582 10578 10573 10567 10561 10555 10548 10542 10535 10528 10521 10513 10506 10499 10492 10485 10479 10473 10466 10460 10455 10450 10446 10443 10439 10436 10432 10429 10426 10425 10424 10422 10418 10415 10412 10410 10408 10407 10406 10405 10404 10402 10399 10398 10400
10634 10632 10630 10628 10625 10622 10620 10618 10616 10614 10611 10608 10605 10602 10599 10595 10592 10587 10583 10578 10573 10568 10562 10556 10549 10543 10536 10530 10523 10516 10509 10502 10495 10488 10481 10475 10469 10463 10458 10453 10449 10445 10442 10439 10436 10432 10430 10429 10427 10425 10422 10419 10417 10414 10413 10411 10410 10410 10409 10407 10405 10403 10403
10632 10630 10628 10626 10623 10621 10619 10617 10615 10613 10611 10608 10605 10602 10599 10596 10592 10588 10583 10578 10574 10568 10563 10557 10551 10545 10538 10532 10525 10518 10511 10504 10497 10490 10484 10478 10472 10466 10460 10456 10451 10448 10444 10441 10439 10436 10433 10432 10430 10428 10425 10423 10421 10419 10417 10415 10415 10414 10413 10412 10410 10408 10408
10630 10628 10626 10624 10622 10619 10617 10616 10614 10612 10610 10607 10605 10602 10599 10596 10592 10588 10584 10579 10574 10569 10564 10558 10552 10546 10540 10534 10527 10520 10513 10506 10499 10493 10486 10480 10474 10469 10463 10458 10454 10450 10447 10444 10441 10439 10436 10434 10433 10431 10428 10426 10424 10423 10421 10419 10418 10418 10417 10416 10415 10414 10412
10629 10627 10624 10622 10620 10618 10616 10615 10613 10612 10609 10607 10604 10602 10599 10596 10592 10588 10584 10580 10575 10570 10565 10559 10554 10548 10542 10535 10529 10522 10515 10508 10501 10495 10489 10483 10476 10471 10466 10461 10456 10452 10449 10446 10443 10441 10439 10437 10435 10433 10431 10429 10427 10426 10424 10423 10422 10421 10420 10419 10419 10418 10417
10627 10625 10622 10620 10618 10616 10615 10614 10612 10611 10609 10606 10604 10601 10598 10595 10592 10588 10584 10580 10576 10571 10566 10560 10555 10549 10543 10537 10530 10524 10517 10510 10504 10497 10491 10485 10479 10473 10468 10464 10459 10455 10451 10448 10445 10442 10440 10438 10437 10435 10433 10431 10430 10428 10427 10426 10425 10424 10423 10422 10421 10421 10420
10625 10623 10620 10618 10616 10615 10614 10613 10611 10610 10608 10606 10603 10601 10598 10595 10592 10588 10585 10580 10576 10572 10567 10561 10556 10550 10544 10538 10532 10526 10519 10512 10506 10500 10493 10487 10482 10476 10470 10466 10461 10457 10453 10450 10446 10444 10441 10439 10438 10436 10435 10433 10432 10430 10429 10427 10426 10426 10425 10424 10423 10423 10423
10623 10620 10618 10616 10615 10614 10613 10612 10611 10609 10607 10605 10603 10600 10598 10595 10592 10588 10585 10581 10577 10572 10567 10562 10557 10551 10546 10540 10534 10528 10521 10515 10508 10502 10495 10489 10484 10478 10472 10467 10463 10459 10455 10452 10448 10445 10443 10440 10438 10437 10436 10434 10432 10431 10430 10428 10427 10426 10426 10425 10424 10424 10424
10621 10618 10616 10615 10613 10612 10612 10611 10610 10608 10606 10604 10602 10600 10597 10595 10591 10588 10585 10581 10577 10573 10568 10563 10558 10552 10547 10542 10536 10530 10523 10517 10510 10504 10497 10491 10485 10480 10475 10469 10465 10460 10457 10453 10449 10446 10443 10441 10439 10437 10436 10434 10433 10432 10430 10429 10428 10427 10426 10425 10425 10424 10424
10619 10616 10615 10613 10612 10611 10611 10610 10609 10607 10606 10604 10601 10599 10597 10594 10591 10588 10585 10581 10577 10573 10568 10563 10559 10554 10549 10543 10537 10531 10525 10519 10513 10506 10500 10493 10487 10481 10476 10471 10466 10462 10458 10454 10450 10447 10444 10441 10439 10437 10435 10434 10433 10432 10430 10429 10428 10427 10426 10426 10425 10424 10424
10618 10616 10614 10612 10611 10611 10610 10609 10608 10606 10605 10603 10601 10598 10596 10593 10590 10588 10584 10581 10577 10573 10569 10564 10559 10555 10550 10545 10539 10533 10527 10521 10515 10508 10502 10495 10489 10483 10477 10473 10468 10463 10458 10454 10450 10447 10444 10441 10438 10436 10434 10432 10431 10430 10430 10429 10427 10426 10425 10425 10424 10424 10423
10618 10615 10613 10612 10611 10610 10609 10608 10607 10606 10604 10602 10600 10598 10595 10593 10590 10587 10584 10581 10577 10573 10569 10564 10560 10556 10551 10546 10541 10535 10529 10523 10517 10510 10504 10497 10491 10485 10479 10473 10469 10464 10459 10455 10451 10447 10443 10440 10437 10435 10433 10431 10429 10428 10427 10427 10426 10425 10424 10423 10423 10423 10422
10618 10616 10613 10612 10611 10609 10608 10607 10606 10605 10603 10602 10600 10597 10595 10592 10590 10587 10584 10581 10578 10574 10569 10565 10561 10556 10552 10547 10542 10536 10531 10525 10518 10512 10506 10500 10493 10487 10480 10475 10469 10465 10460 10455 10451 10447 10443 10440 10436 10433 10431 10429 10427 10426 10424 10423 10423 10422 10422 10421 10421 10421 10420
10618 10616 10614 10612 10610 10609 10608 10607 10605 10604 10603 10601 10599 10597 10594 10592 10590 10587 10585 10581 10578 10574 10569 10565 10561 10556 10552 10547 10542 10537 10531 10526 10520 10514 10508 10502 10495 10489 10482 10476 10470 10465 10460 10455 10450 10446 10443 10439 10435 10432 10429 10427 10425 10423 10421 10420 10419 10418 10418 10418 10417 10417 10417
10619 10616 10614 10612 10610 10609 10607 10606 10605 10603 10602 10601 10599 10596 10594 10591 10589 10587 10584 10581 10577 10573 10569 10564 10560 10556 10552 10547 10542 10537 10532 10526 10521 10515 10509 10503 10497 10491 10484 10478 10472 10466 10461 10455 10450 10445 10441 10437 10434 10431 10427 10424 10422 10420 10418 10416 10415 10413 10413 10413 10413 10413 10413
10619 10616 10614 10612 10610 10609 10607 10605 10604 10603 10601 10600 10598 10596 10593 10591 10589 10586 10584 10580 10577 10573 10568 10564 10560 10556 10551 10547 10542 10537 10532 10527 10521 10516 10510 10504 10498 10492 10486 10480 10473 10467 10461 10455 10450 10444 10440 10435 10432 10428 10425 10422 10419 10417 10414 10412 10410 10408 10407 10407 10407 10407 10407
10619 10616 10614 10612 10610 10608 10607 10605 10603 10602 10600 10599 10597 10595 10592 10590 10588 10586 10583 10580 10576 10572 10568 10564 10560 10555 10551 10547 10542 10537 10532 10527 10522 10516 10510 10504 10498 10492 10486 10480 10474 10467 10461 10454 10448 10443 10438 10433 10429 10425 10422 10418 10416 10413 10410 10408 10406 10403 10402 10401 10400 10400 10400
10619 10616 10614 10612 10610 10608 10606 10604 10603 10601 10599 10598 10596 10594 10591 10589 10587 10585 10582 10579 10576 10572 10568 10564 10560 10555 10551 10547 10542 10537 10532 10527 10522 10516 10510 10504 10498 10492 10486 10480 10474 10467 10460 10454 10448 10442 10436 10431 10426 10421 10418 10414 10411 10408 10406 10403 10401 10398 10396 10394 10394 10393 10393
10618 10616 10614 10612 10610 10608 10606 10604 10602 10600 10598 10597 10595 10593 10590 10588 10586 10584 10581 10578 10575 10571 10568 10564 10559 10555 10551 10547 10542 10537 10532 10527 10522 10516 10510 10504 10498 10492 10485 10479 10473 10467 10460 10453 10447 10440 10434 10428 10423 10418 10414 10410 10407 10403 10400 10397 10395 10392 10390 10388 10387 10386 10386
10618 10616 10613 10611 10609 10607 10605 10603 10601 10599 10597 10595 10594 10592 10589 10587 10585 10583 10580 10577 10574 10571 10567 10563 10559 10555 10551 10547 10542 10538 10533 10528 10522 10517 10511 10505 10498 10492 10485 10479 10472 10466 10460 10453 10446 10439 10433 10426 10420 10415 10410 10405 10401 10397 10394 10391 10387 10385 10383 10382 10380 10379 10379
10618 10616 10613 10611 10609 10606 10604 10602 10600 10598 10595 10593 10592 10590 10588 10586 10583 10581 10579 10576 10573 10570 10566 10563 10559 10555 10551 10547 10542 10538 10533 10528 10523 10517 10511 10505 10499 10492 10486 10479 10473 10467 10460 10453 10446 10439 10431 10424 10417 10411 10405 10400 10394 10390 10387 10384 10381 10378 10376 10374 10373 10372 10372
10618 10615 10613 10610 10608 10606 10604 10601 10599 10597 10594 10592 10590 10588 10586 10584 10582 10580 10577 10574 10572 10569 10565 10562 10558 10554 10550 10546 10542 10538 10533 10528 10523 10517 10512 10506 10500 10493 10486 10479 10473 10467 10460 10452 10444 10436 10429 10422 10415 10408 10401 10395 10389 10383 10379 10376 10373 10371 10368 10366 10365 10364 10364
10617 10615 10612 10610 10607 10605 10603 10600 10598 10595 10593 10590 10588 10586 10584 10582 10580 10578 10576 10573 10570 10567 10564 10561 10557 10554 10550 10546 10542 10538 10533 10528 10523 10517 10511 10506 10499 10492 10485 10478 10472 10465 10457 10449 10441 10433 10426 10418 10411 10404 10396 10389 10383 10378 10372 10368 10366 10364 10361 10359 10357 10357 10357
10616 10614 10611 10609 10607 10604 10602 10599 10597 10594 10591 10589 10586 10584 10582 10581 10579 10576 10574 10571 10569 10566 10563 10560 10557 10553 10549 10546 10541 10537 10533 10528 10522 10516 10511 10505 10499 10492 10485 10477 10470 10463 10455 10447 10439 10431 10423 10414 10407 10399 10391 10384 10377 10372 10367 10362 10359 10356 10354 10352 10351 10350 10350
10615 10612 10610 10608 10606 10603 10601 10599 10596 10593 10590 10588 10585 10582 10580 10579 10577 10575 10572 10570 10567 10565 10562 10559 10556 10552 10549 10545 10541 10537 10532 10527 10522 10516 10509 10504 10498 10491 10484 10476 10469 10461 10453 10445 10437 10428 10419 10411 10403 10395 10387 10380 10373 10366 10361 10357 10353 10350 10348 10346 10345 10344 10344
10613 10611 10609 10607 10605 10602 10600 10598 10595 10593 10590 10587 10584 10581 10579 10577 10575 10573 10570 10568 10566 10563 10561 10558 10555 10551 10548 10544 10540 10536 10531 10526 10521 10515 10509 10503 10497 10490 10482 10475 10468 10460 10452 10443 10433 10424 10415 10407 10399 10390 10383 10375 10368 10362 10356 10352 10348 10345 10343 10341 10339 10339 10339
10611 10609 10608 10606 10604 10601 10599 10597 10594 10592 10589 10586 10583 10580 10577 10575 10573 10571 10569 10566 10564 10562 10559 10557 10553 10550 10546 10543 10539 10535 10530 10525 10520 10515 10509 10503 10497 10490 10482 10474 10467 10459 10451 10441 10432 10422 10413 10404 10395 10387 10379 10371 10365 10358 10353 10348 10344 10341 10338 10336 10334 10334 10335
10610 10608 10606 10604 10602 10600 10598 10596 10594 10591 10588 10585 10582 10579 10576 10574 10572 10570 10568 10565 10562 10560 10558 10555 10552 10549 10545 10542 10538 10534 10529 10524 10519 10514 10508 10501 10495 10489 10481 10474 10466 10458 10450 10441 10432 10422 10412 10402 10393 10384 10375 10368 10361 10355 10349 10345 10340 10337 10334 10332 10331 10330 10330
10608 10606 10604 10603 10601 10599 10597 10595 10593 10590 10588 10585 10582 10579 10576 10573 10571 10568 10566 10564 10561 10558 10556 10554 10551 10547 10544 10540 10537 10532 10528 10523 10518 10513 10507 10500 10494 10488 10480 10473 10466 10458 10450 10442 10433 10423 10412 10401 10391 10381 10372 10365 10358 10352 10347 10342 10337 10334 10331 10330 10328 10327 10327
10609 10606 10604 10602 10600 10598 10596 10594 10592 10589 10587 10584 10581 10578 10575 10572 10570 10567 10565 10562 10559 10557 10554 10552 10549 10546 10543 10539 10535 10531 10527 10522 10517 10511 10506 10500 10493 10487 10480 10473 10466 10458 10451 10443 10433 10422 10411 10400 10389 10380 10371 10363 10356 10350 10344 10339 10335 10332 10329 10327 10326 10325 10325
10610 10606 10603 10600 10598 10597 10594 10592 10590 10588 10586 10583 10580 10578 10575 10572 10569 10566 10564 10561 10558 10555 10553 10550 10547 10544 10541 10538 10534 10530 10526 10521 10516 10511 10505 10499 10493 10487 10480 10473 10466 10459 10451 10442 10432 10421 10410 10399 10388 10379 10370 10362 10355 10349 10343 10338 10334 10330 10327 10325 10324 10323 10323